LEMUR-2-LE

Last updated on March 10, 2017, 12:15 a.m. UTC

1 42069U 98067LE  17068.87687007  .00016356  00000-0  24740-3 0  9997
2 42069  51.6434 173.3326 0006540 262.0741  97.9507 15.54816924   527

Satellite is not in orbit.